Time,TemperatureF,DewpointF,PressureIn,WindDirection,WindDirectionDegrees,WindSpeedMPH,WindSpeedGustMPH,Humidity,HourlyPrecipIn,Conditions,Clouds,dailyrainin,SoftwareType,DateUTC
2013-02-16 00:00:00,25.5,21.4,30.16,WNW,300,0.0,0.0,84,0.00,,---,0.00,VWS V14.01,2013-02-16 05:00:00,
2013-02-16 00:05:00,25.3,21.1,30.16,WNW,300,0.0,0.0,84,0.00,,---,0.00,VWS V14.01,2013-02-16 05:05:00,
2013-02-16 00:10:00,25.2,21.3,30.15,WNW,299,0.0,0.0,85,0.00,,---,0.00,VWS V14.01,2013-02-16 05:10:00,
2013-02-16 00:15:00,25.1,21.2,30.15,WNW,300,0.0,0.0,85,0.00,,---,0.00,VWS V14.01,2013-02-16 05:15:00,
2013-02-16 00:20:00,24.9,21.0,30.16,WNW,300,0.0,0.0,85,0.00,,---,0.00,VWS V14.01,2013-02-16 05:20:00,
2013-02-16 00:23:00,24.8,20.9,30.16,WNW,300,0.0,0.0,85,0.00,,---,0.00,VWS V14.01,2013-02-16 05:23:00,
2013-02-16 00:28:00,24.8,20.9,30.15,WNW,299,0.0,0.0,85,0.00,,---,0.00,VWS V14.01,2013-02-16 05:28:00,
2013-02-16 00:30:00,22.2,19.5,30.14,WNW,299,0.0,0.0,89,0.00,,---,0.00,VWS V15.00,2013-02-16 05:30:00,
2013-02-16 00:33:00,24.6,20.7,30.15,WNW,299,0.0,0.0,85,0.00,,---,0.00,VWS V14.01,2013-02-16 05:33:00,
2013-02-16 00:38:00,24.5,20.9,30.15,WNW,300,0.0,0.0,86,0.00,,---,0.00,VWS V14.01,2013-02-16 05:38:00,
2013-02-16 00:43:00,24.3,20.5,30.15,WNW,300,0.0,0.0,85,0.00,,---,0.00,VWS V14.01,2013-02-16 05:43:00,
2013-02-16 00:48:00,24.0,20.4,30.15,WNW,299,0.0,0.0,86,0.00,,---,0.00,VWS V14.01,2013-02-16 05:48:00,
2013-02-16 00:53:00,23.8,20.2,30.15,WNW,299,0.0,0.0,86,0.00,,---,0.00,VWS V14.01,2013-02-16 05:53:00,
2013-02-16 00:58:00,23.5,19.9,30.15,WNW,299,0.0,0.0,86,0.00,,---,0.00,VWS V14.01,2013-02-16 05:58:00,
2013-02-16 01:00:00,22.3,19.8,30.14,WNW,300,0.0,0.0,90,0.00,,---,0.00,VWS V15.00,2013-02-16 06:00:00,
2013-02-16 01:03:00,23.3,19.7,30.15,WNW,299,0.0,0.0,86,0.00,,---,0.00,VWS V14.01,2013-02-16 06:03:00,
2013-02-16 01:08:00,23.1,19.5,30.15,WNW,300,0.0,0.0,86,0.00,,---,0.00,VWS V14.01,2013-02-16 06:08:00,
2013-02-16 01:13:00,22.8,19.5,30.15,WNW,300,0.0,0.0,87,0.00,,---,0.00,VWS V14.01,2013-02-16 06:13:00,
2013-02-16 01:18:00,22.6,19.3,30.14,WNW,299,0.0,0.0,87,0.00,,---,0.00,VWS V14.01,2013-02-16 06:18:00,
2013-02-16 01:23:00,22.5,19.5,30.14,WNW,299,0.0,0.0,88,0.00,,---,0.00,VWS V14.01,2013-02-16 06:23:00,
2013-02-16 01:28:00,22.4,19.4,30.14,WNW,299,0.0,0.0,88,0.00,,---,0.00,VWS V14.01,2013-02-16 06:28:00,
2013-02-16 01:30:00,22.0,19.5,30.13,WNW,300,0.0,0.0,90,0.00,,---,0.00,VWS V15.00,2013-02-16 06:30:00,
2013-02-16 01:33:00,22.2,19.5,30.14,WNW,299,0.0,0.0,89,0.00,,---,0.00,VWS V14.01,2013-02-16 06:33:00,
2013-02-16 01:38:00,22.0,19.3,30.14,WNW,300,0.0,0.0,89,0.00,,---,0.00,VWS V14.01,2013-02-16 06:38:00,
2013-02-16 01:43:00,21.8,19.1,30.14,WNW,299,0.0,0.0,89,0.00,,---,0.00,VWS V14.01,2013-02-16 06:43:00,
2013-02-16 01:48:00,21.9,19.4,30.14,WNW,300,0.0,0.0,90,0.00,,---,0.00,VWS V14.01,2013-02-16 06:48:00,
2013-02-16 01:53:00,22.1,19.6,30.14,WNW,300,0.0,0.0,90,0.00,,---,0.00,VWS V14.01,2013-02-16 06:53:00,
2013-02-16 01:58:00,22.2,19.7,30.14,WNW,300,0.0,0.0,90,0.00,,---,0.00,VWS V14.01,2013-02-16 06:58:00,
2013-02-16 02:00:00,21.7,19.2,30.12,WNW,300,0.0,0.0,90,0.00,,---,0.00,VWS V15.00,2013-02-16 07:00:00,
2013-02-16 02:03:00,22.3,19.8,30.14,WNW,300,0.0,0.0,90,0.00,,---,0.00,VWS V14.01,2013-02-16 07:03:00,
2013-02-16 02:08:00,22.2,19.5,30.14,WNW,300,0.0,0.0,89,0.00,,---,0.00,VWS V14.01,2013-02-16 07:08:00,
2013-02-16 02:13:00,22.0,19.3,30.14,WNW,300,0.0,0.0,89,0.00,,---,0.00,VWS V14.01,2013-02-16 07:13:00,
2013-02-16 02:18:00,21.9,19.4,30.14,WNW,300,0.0,0.0,90,0.00,,---,0.00,VWS V14.01,2013-02-16 07:18:00,
2013-02-16 02:23:00,21.8,19.3,30.14,WNW,300,0.0,0.0,90,0.00,,---,0.00,VWS V14.01,2013-02-16 07:23:00,
2013-02-16 02:28:00,21.9,19.4,30.13,WNW,299,0.0,0.0,90,0.00,,---,0.00,VWS V14.01,2013-02-16 07:28:00,
2013-02-16 02:30:00,21.8,19.6,30.11,WNW,299,0.0,0.0,91,0.00,,---,0.00,VWS V15.00,2013-02-16 07:30:00,
2013-02-16 02:33:00,22.1,19.6,30.13,WNW,299,0.0,0.0,90,0.00,,---,0.00,VWS V14.01,2013-02-16 07:33:00,
2013-02-16 02:38:00,22.3,19.8,30.13,WNW,299,0.0,0.0,90,0.00,,---,0.00,VWS V14.01,2013-02-16 07:38:00,
2013-02-16 02:43:00,22.3,19.8,30.13,WNW,299,0.0,0.0,90,0.00,,---,0.00,VWS V14.01,2013-02-16 07:43:00,
2013-02-16 02:48:00,22.2,19.7,30.13,WNW,299,0.0,0.0,90,0.00,,---,0.00,VWS V14.01,2013-02-16 07:48:00,
2013-02-16 02:53:00,22.1,19.6,30.13,WNW,299,0.0,0.0,90,0.00,,---,0.00,VWS V14.01,2013-02-16 07:53:00,
2013-02-16 02:58:00,21.9,19.4,30.13,WNW,300,0.0,0.0,90,0.00,,---,0.00,VWS V14.01,2013-02-16 07:58:00,
2013-02-16 03:00:00,20.6,18.4,30.10,WNW,299,0.0,0.0,91,0.00,,---,0.00,VWS V15.00,2013-02-16 08:00:00,
2013-02-16 03:03:00,21.7,19.2,30.12,WNW,300,0.0,0.0,90,0.00,,---,0.00,VWS V14.01,2013-02-16 08:03:00,
2013-02-16 03:08:00,21.8,19.3,30.12,WNW,299,0.0,0.0,90,0.00,,---,0.00,VWS V14.01,2013-02-16 08:08:00,
2013-02-16 03:13:00,21.7,19.2,30.12,WNW,299,0.0,0.0,90,0.00,,---,0.00,VWS V14.01,2013-02-16 08:13:00,
2013-02-16 03:18:00,21.7,19.2,30.12,WNW,299,0.0,0.0,90,0.00,,---,0.00,VWS V14.01,2013-02-16 08:18:00,
2013-02-16 03:23:00,21.7,19.2,30.12,WNW,300,0.0,0.0,90,0.00,,---,0.00,VWS V14.01,2013-02-16 08:23:00,
2013-02-16 03:28:00,21.8,19.6,30.11,WNW,300,0.0,0.0,91,0.00,,---,0.00,VWS V14.01,2013-02-16 08:28:00,
2013-02-16 03:30:00,20.4,18.5,30.10,WNW,301,0.0,0.0,92,0.00,,---,0.00,VWS V15.00,2013-02-16 08:30:00,
2013-02-16 03:33:00,21.8,19.6,30.11,WNW,300,0.0,0.0,91,0.00,,---,0.00,VWS V14.01,2013-02-16 08:33:00,
2013-02-16 03:38:00,21.7,19.2,30.11,WNW,299,0.0,0.0,90,0.00,,---,0.00,VWS V14.01,2013-02-16 08:38:00,
2013-02-16 03:43:00,21.5,19.0,30.11,WNW,299,0.0,0.0,90,0.00,,---,0.00,VWS V14.01,2013-02-16 08:43:00,
2013-02-16 03:47:00,21.2,18.7,30.11,WNW,300,0.0,0.0,90,0.00,,---,0.00,VWS V14.01,2013-02-16 08:47:00,
2013-02-16 03:52:00,20.9,18.4,30.10,WNW,300,0.0,0.0,90,0.00,,---,0.00,VWS V14.01,2013-02-16 08:52:00,
2013-02-16 03:57:00,20.6,18.1,30.10,WNW,300,0.0,0.0,90,0.00,,---,0.00,VWS V14.01,2013-02-16 08:57:00,
2013-02-16 04:00:00,20.4,18.7,30.10,WNW,301,0.0,0.0,93,0.00,,---,0.00,VWS V15.00,2013-02-16 09:00:00,
2013-02-16 04:02:00,20.6,18.4,30.10,WNW,299,0.0,0.0,91,0.00,,---,0.00,VWS V14.01,2013-02-16 09:02:00,
2013-02-16 04:07:00,20.8,18.9,30.10,WNW,301,0.0,0.0,92,0.00,,---,0.00,VWS V14.01,2013-02-16 09:07:00,
2013-02-16 04:12:00,20.9,19.0,30.10,WNW,301,0.0,0.0,92,0.00,,---,0.00,VWS V14.01,2013-02-16 09:12:00,
2013-02-16 04:17:00,20.8,18.9,30.10,WNW,301,0.0,0.0,92,0.00,,---,0.00,VWS V14.01,2013-02-16 09:17:00,
2013-02-16 04:22:00,20.7,18.8,30.10,WNW,301,0.0,0.0,92,0.00,,---,0.00,VWS V14.01,2013-02-16 09:22:00,
2013-02-16 04:27:00,20.5,18.3,30.10,WNW,301,0.0,0.0,91,0.00,,---,0.00,VWS V14.01,2013-02-16 09:27:00,
2013-02-16 04:30:00,19.4,17.7,30.10,WNW,301,0.0,0.0,93,0.00,,---,0.00,VWS V15.00,2013-02-16 09:30:00,
2013-02-16 04:32:00,20.3,18.4,30.10,WNW,301,0.0,0.0,92,0.00,,---,0.00,VWS V14.01,2013-02-16 09:32:00,
2013-02-16 04:37:00,20.2,18.2,30.10,WNW,301,0.0,0.0,92,0.00,,---,0.00,VWS V14.01,2013-02-16 09:37:00,
2013-02-16 04:42:00,20.2,18.2,30.10,WNW,301,0.0,0.0,92,0.00,,---,0.00,VWS V14.01,2013-02-16 09:42:00,
2013-02-16 04:47:00,20.4,18.5,30.10,WNW,301,0.0,0.0,92,0.00,,---,0.00,VWS V14.01,2013-02-16 09:47:00,
2013-02-16 04:52:00,20.4,18.7,30.10,WNW,301,0.0,0.0,93,0.00,,---,0.00,VWS V14.01,2013-02-16 09:52:00,
2013-02-16 04:57:00,20.4,18.5,30.10,WNW,301,0.0,0.0,92,0.00,,---,0.00,VWS V14.01,2013-02-16 09:57:00,
2013-02-16 05:00:00,19.0,17.6,30.09,WNW,301,0.0,0.0,94,0.00,,---,0.00,VWS V15.00,2013-02-16 10:00:00,
2013-02-16 05:02:00,20.4,18.5,30.10,WNW,301,0.0,0.0,92,0.00,,---,0.00,VWS V14.01,2013-02-16 10:02:00,
2013-02-16 05:07:00,20.3,18.4,30.10,WNW,301,0.0,0.0,92,0.00,,---,0.00,VWS V14.01,2013-02-16 10:07:00,
2013-02-16 05:12:00,20.0,18.0,30.10,WNW,301,0.0,0.0,92,0.00,,---,0.00,VWS V14.01,2013-02-16 10:12:00,
2013-02-16 05:17:00,19.8,17.9,30.10,WNW,301,0.0,0.0,92,0.00,,---,0.00,VWS V14.01,2013-02-16 10:17:00,
2013-02-16 05:22:00,19.7,18.0,30.10,WNW,301,0.0,0.0,93,0.00,,---,0.00,VWS V14.01,2013-02-16 10:22:00,
2013-02-16 05:27:00,19.6,17.9,30.10,WNW,301,0.0,0.0,93,0.00,,---,0.00,VWS V14.01,2013-02-16 10:27:00,
2013-02-16 05:30:00,17.7,16.3,30.09,WNW,301,0.0,0.0,94,0.00,,---,0.00,VWS V15.00,2013-02-16 10:30:00,
2013-02-16 05:32:00,19.3,17.6,30.10,WNW,301,0.0,0.0,93,0.00,,---,0.00,VWS V14.01,2013-02-16 10:32:00,
2013-02-16 05:37:00,19.0,17.3,30.10,WNW,301,0.0,0.0,93,0.00,,---,0.00,VWS V14.01,2013-02-16 10:37:00,
2013-02-16 05:42:00,19.0,17.3,30.09,WNW,301,0.0,0.0,93,0.00,,---,0.00,VWS V14.01,2013-02-16 10:42:00,
2013-02-16 05:47:00,19.1,17.4,30.09,WNW,301,0.0,0.0,93,0.00,,---,0.00,VWS V14.01,2013-02-16 10:47:00,
2013-02-16 05:52:00,19.2,17.8,30.09,WNW,301,0.0,0.0,94,0.00,,---,0.00,VWS V14.01,2013-02-16 10:52:00,
2013-02-16 05:57:00,19.1,17.4,30.09,WNW,301,0.0,0.0,93,0.00,,---,0.00,VWS V14.01,2013-02-16 10:57:00,
2013-02-16 06:00:00,18.1,16.9,30.09,WNW,299,0.0,0.0,95,0.00,,---,0.00,VWS V15.00,2013-02-16 11:00:00,
2013-02-16 06:02:00,19.0,17.6,30.09,WNW,301,0.0,0.0,94,0.00,,---,0.00,VWS V14.01,2013-02-16 11:02:00,
2013-02-16 06:07:00,18.7,17.0,30.09,WNW,301,0.0,0.0,93,0.00,,---,0.00,VWS V14.01,2013-02-16 11:07:00,
2013-02-16 06:12:00,18.5,16.8,30.09,WNW,301,0.0,0.0,93,0.00,,---,0.00,VWS V14.01,2013-02-16 11:12:00,
2013-02-16 06:17:00,18.4,17.0,30.09,WNW,300,0.0,0.0,94,0.00,,---,0.00,VWS V14.01,2013-02-16 11:17:00,
2013-02-16 06:22:00,18.1,16.7,30.09,WNW,301,0.0,0.0,94,0.00,,---,0.00,VWS V14.01,2013-02-16 11:22:00,
2013-02-16 06:27:00,17.8,16.4,30.09,WNW,299,0.0,0.0,94,0.00,,---,0.00,VWS V14.01,2013-02-16 11:27:00,
2013-02-16 06:30:00,19.2,18.0,30.08,WNW,299,0.0,0.0,95,0.00,,---,0.00,VWS V15.00,2013-02-16 11:30:00,
2013-02-16 06:32:00,17.7,16.3,30.09,WNW,300,0.0,0.0,94,0.00,,---,0.00,VWS V14.01,2013-02-16 11:32:00,
2013-02-16 06:37:00,17.8,16.4,30.09,WNW,301,0.0,0.0,94,0.00,,---,0.00,VWS V14.01,2013-02-16 11:37:00,
2013-02-16 06:42:00,18.1,16.7,30.09,WNW,300,0.0,0.0,94,0.00,,---,0.00,VWS V14.01,2013-02-16 11:42:00,
2013-02-16 06:47:00,18.2,17.0,30.09,WNW,300,0.0,0.0,95,0.00,,---,0.00,VWS V14.01,2013-02-16 11:47:00,
2013-02-16 06:52:00,18.1,16.9,30.09,WNW,300,0.0,0.0,95,0.00,,---,0.00,VWS V14.01,2013-02-16 11:52:00,
2013-02-16 06:57:00,18.1,16.9,30.09,WNW,300,0.0,0.0,95,0.00,,---,0.00,VWS V14.01,2013-02-16 11:57:00,
2013-02-16 07:00:00,21.0,19.8,30.09,West,267,0.0,3.0,95,0.00,,---,0.00,VWS V15.00,2013-02-16 12:00:00,
2013-02-16 07:02:00,18.1,16.9,30.09,WNW,299,0.0,0.0,95,0.00,,---,0.00,VWS V14.01,2013-02-16 12:02:00,
2013-02-16 07:07:00,18.8,17.6,30.08,WNW,301,0.0,0.0,95,0.00,,---,0.00,VWS V14.01,2013-02-16 12:07:00,
2013-02-16 07:12:00,19.1,17.9,30.08,WNW,301,0.0,0.0,95,0.00,,---,0.00,VWS V14.01,2013-02-16 12:12:00,
2013-02-16 07:17:00,19.2,18.0,30.08,WNW,301,0.0,0.0,95,0.00,,---,0.00,VWS V14.01,2013-02-16 12:17:00,
2013-02-16 07:22:00,19.4,18.2,30.08,WNW,300,0.0,0.0,95,0.00,,---,0.00,VWS V14.01,2013-02-16 12:22:00,
2013-02-16 07:27:00,19.4,18.2,30.08,WNW,299,0.0,0.0,95,0.00,,---,0.00,VWS V14.01,2013-02-16 12:27:00,
2013-02-16 07:30:00,23.3,21.3,30.09,WNW,296,2.0,3.0,92,0.00,,---,0.00,VWS V15.00,2013-02-16 12:30:00,
2013-02-16 07:32:00,19.2,18.0,30.08,WNW,300,0.0,0.0,95,0.00,,---,0.00,VWS V14.01,2013-02-16 12:32:00,
2013-02-16 07:37:00,19.1,17.9,30.09,WNW,300,0.0,0.0,95,0.00,,---,0.00,VWS V14.01,2013-02-16 12:37:00,
2013-02-16 07:42:00,19.2,18.0,30.09,WNW,302,0.0,0.0,95,0.00,,---,0.00,VWS V14.01,2013-02-16 12:42:00,
2013-02-16 07:47:00,19.1,17.9,30.09,NW,307,2.0,2.0,95,0.00,,---,0.00,VWS V14.01,2013-02-16 12:47:00,
2013-02-16 07:52:00,19.6,18.4,30.09,West,271,1.0,2.0,95,0.00,,---,0.00,VWS V14.01,2013-02-16 12:52:00,
2013-02-16 07:57:00,20.4,19.2,30.09,West,274,2.0,3.0,95,0.00,,---,0.00,VWS V14.01,2013-02-16 12:57:00,
2013-02-16 08:00:00,25.0,21.4,30.10,West,259,3.0,5.0,86,0.00,,---,0.00,VWS V15.00,2013-02-16 13:00:00,
2013-02-16 08:02:00,21.2,20.0,30.09,West,267,0.0,0.0,95,0.00,,---,0.00,VWS V14.01,2013-02-16 13:02:00,
2013-02-16 08:07:00,21.7,20.5,30.09,West,271,1.0,1.0,95,0.00,,---,0.00,VWS V14.01,2013-02-16 13:07:00,
2013-02-16 08:12:00,22.1,20.6,30.09,West,263,2.0,2.0,94,0.00,,---,0.00,VWS V14.01,2013-02-16 13:12:00,
2013-02-16 08:17:00,22.5,21.0,30.09,WSW,253,1.0,2.0,94,0.00,,---,0.00,VWS V14.01,2013-02-16 13:17:00,
2013-02-16 08:22:00,22.8,21.1,30.09,WNW,287,1.0,2.0,93,0.00,,---,0.00,VWS V14.01,2013-02-16 13:22:00,
2013-02-16 08:27:00,23.1,21.1,30.09,West,276,2.0,3.0,92,0.00,,---,0.00,VWS V14.01,2013-02-16 13:27:00,
2013-02-16 08:30:00,25.5,20.8,30.10,NW,312,5.0,5.0,82,0.00,,---,0.00,VWS V15.00,2013-02-16 13:30:00,
2013-02-16 08:32:00,23.4,21.2,30.09,WNW,286,1.0,2.0,91,0.00,,---,0.00,VWS V14.01,2013-02-16 13:32:00,
2013-02-16 08:37:00,23.8,21.6,30.10,West,269,1.0,2.0,91,0.00,,---,0.00,VWS V14.01,2013-02-16 13:37:00,
2013-02-16 08:42:00,24.0,21.5,30.10,West,267,1.0,2.0,90,0.00,,---,0.00,VWS V14.01,2013-02-16 13:42:00,
2013-02-16 08:47:00,24.3,21.5,30.10,West,280,3.0,5.0,89,0.00,,---,0.00,VWS V14.01,2013-02-16 13:47:00,
2013-02-16 08:52:00,24.5,21.5,30.10,West,267,2.0,5.0,88,0.00,,---,0.00,VWS V14.01,2013-02-16 13:52:00,
2013-02-16 08:57:00,24.8,21.5,30.10,West,273,1.0,5.0,87,0.00,,---,0.00,VWS V14.01,2013-02-16 13:57:00,
2013-02-16 09:00:00,26.6,21.6,30.09,WNW,290,1.0,6.0,81,0.00,,---,0.00,VWS V15.00,2013-02-16 14:00:00,
2013-02-16 09:02:00,25.0,21.4,30.10,WNW,297,3.0,5.0,86,0.00,,---,0.00,VWS V14.01,2013-02-16 14:02:00,
2013-02-16 09:07:00,25.0,20.9,30.10,WNW,288,1.0,5.0,84,0.00,,---,0.00,VWS V14.01,2013-02-16 14:07:00,
2013-02-16 09:12:00,25.2,21.0,30.10,WSW,245,3.0,5.0,84,0.00,,---,0.00,VWS V14.01,2013-02-16 14:12:00,
2013-02-16 09:17:00,25.2,20.8,30.10,WNW,294,3.0,5.0,83,0.00,,---,0.00,VWS V14.01,2013-02-16 14:17:00,
2013-02-16 09:22:00,25.3,20.9,30.10,WNW,290,2.0,5.0,83,0.00,,---,0.00,VWS V14.01,2013-02-16 14:22:00,
2013-02-16 09:27:00,25.5,21.1,30.10,WNW,285,3.0,5.0,83,0.00,,---,0.00,VWS V14.01,2013-02-16 14:27:00,
2013-02-16 09:30:00,26.6,20.7,30.09,West,269,5.0,8.0,78,0.00,,---,0.00,VWS V15.00,2013-02-16 14:30:00,
2013-02-16 09:32:00,25.5,20.8,30.10,West,264,3.0,5.0,82,0.00,,---,0.00,VWS V14.01,2013-02-16 14:32:00,
2013-02-16 09:37:00,25.4,20.7,30.10,WNW,298,4.0,5.0,82,0.00,,---,0.00,VWS V14.01,2013-02-16 14:37:00,
2013-02-16 09:42:00,25.6,20.9,30.10,West,277,2.0,5.0,82,0.00,,---,0.00,VWS V14.01,2013-02-16 14:42:00,
2013-02-16 09:47:00,25.9,21.2,30.09,WNW,283,5.0,5.0,82,0.00,,---,0.00,VWS V14.01,2013-02-16 14:47:00,
2013-02-16 09:52:00,26.1,21.1,30.09,WNW,292,3.0,5.0,81,0.00,,---,0.00,VWS V14.01,2013-02-16 14:52:00,
2013-02-16 09:57:00,26.3,21.3,30.09,NW,309,2.0,6.0,81,0.00,,---,0.00,VWS V14.01,2013-02-16 14:57:00,
2013-02-16 10:00:00,27.2,20.3,30.09,WSW,255,5.0,11.0,75,0.00,,---,0.00,VWS V15.00,2013-02-16 15:00:00,
2013-02-16 10:02:00,26.8,22.0,30.09,NNW,328,1.0,2.0,82,0.00,,---,0.00,VWS V14.01,2013-02-16 15:02:00,
2013-02-16 10:07:00,27.0,21.4,30.09,WNW,287,2.0,7.0,79,0.00,,---,0.00,VWS V14.01,2013-02-16 15:07:00,
2013-02-16 10:12:00,26.8,21.2,30.09,NW,315,4.0,7.0,79,0.00,,---,0.00,VWS V14.01,2013-02-16 15:12:00,
2013-02-16 10:17:00,27.1,21.8,30.09,West,267,1.0,7.0,80,0.00,,---,0.00,VWS V14.01,2013-02-16 15:17:00,
2013-02-16 10:22:00,26.9,21.3,30.09,West,270,2.0,7.0,79,0.00,,---,0.00,VWS V14.01,2013-02-16 15:22:00,
2013-02-16 10:27:00,26.7,21.1,30.09,WNW,293,4.0,7.0,79,0.00,,---,0.00,VWS V14.01,2013-02-16 15:27:00,
2013-02-16 10:30:00,26.8,19.6,30.09,NNW,333,3.0,10.0,74,0.00,,---,0.00,VWS V15.00,2013-02-16 15:30:00,
2013-02-16 10:32:00,26.5,20.6,30.09,WNW,300,2.0,7.0,78,0.00,,---,0.00,VWS V14.01,2013-02-16 15:32:00,
2013-02-16 10:37:00,26.6,20.7,30.09,NW,326,3.0,7.0,78,0.00,,---,0.00,VWS V14.01,2013-02-16 15:37:00,
2013-02-16 10:42:00,26.5,20.6,30.09,WNW,287,1.0,7.0,78,0.00,,---,0.00,VWS V14.01,2013-02-16 15:42:00,
2013-02-16 10:47:00,27.1,20.9,30.09,WSW,255,3.0,7.0,77,0.00,,---,0.00,VWS V14.01,2013-02-16 15:47:00,
2013-02-16 10:52:00,27.5,21.2,30.09,WNW,293,4.0,7.0,77,0.00,,---,0.00,VWS V14.01,2013-02-16 15:52:00,
2013-02-16 10:57:00,27.4,21.1,30.09,WNW,300,6.0,11.0,77,0.00,,---,0.00,VWS V14.01,2013-02-16 15:57:00,
2013-02-16 11:00:00,26.7,17.9,30.09,NW,311,4.0,11.0,69,0.00,,---,0.00,VWS V15.00,2013-02-16 16:00:00,
2013-02-16 11:02:00,27.2,20.3,30.09,WNW,285,2.0,6.0,75,0.00,,---,0.00,VWS V14.01,2013-02-16 16:02:00,
2013-02-16 11:07:00,27.4,20.2,30.09,WNW,287,3.0,10.0,74,0.00,,---,0.00,VWS V14.01,2013-02-16 16:07:00,
2013-02-16 11:12:00,27.2,20.3,30.09,West,279,4.0,10.0,75,0.00,,---,0.00,VWS V14.01,2013-02-16 16:12:00,
2013-02-16 11:17:00,26.9,20.0,30.09,WNW,300,3.0,10.0,75,0.00,,---,0.00,VWS V14.01,2013-02-16 16:17:00,
2013-02-16 11:22:00,26.9,20.4,30.09,West,269,1.0,10.0,76,0.00,,---,0.00,VWS V14.01,2013-02-16 16:22:00,
2013-02-16 11:27:00,26.9,20.4,30.09,WNW,287,3.0,10.0,76,0.00,,---,0.00,VWS V14.01,2013-02-16 16:27:00,
2013-02-16 11:30:00,26.6,16.8,30.09,WNW,295,5.0,11.0,66,0.00,,---,0.00,VWS V15.00,2013-02-16 16:30:00,
2013-02-16 11:32:00,26.7,19.5,30.09,WNW,302,6.0,10.0,74,0.00,,---,0.00,VWS V14.01,2013-02-16 16:32:00,
2013-02-16 11:37:00,26.6,19.1,30.09,West,275,7.0,11.0,73,0.00,,---,0.00,VWS V14.01,2013-02-16 16:37:00,
2013-02-16 11:42:00,26.5,18.4,30.09,WNW,283,3.0,11.0,71,0.00,,---,0.00,VWS V14.01,2013-02-16 16:42:00,
2013-02-16 11:47:00,26.8,18.7,30.09,WNW,287,3.0,11.0,71,0.00,,---,0.00,VWS V14.01,2013-02-16 16:47:00,
2013-02-16 11:52:00,27.1,19.3,30.09,NW,307,3.0,11.0,72,0.00,,---,0.00,VWS V14.01,2013-02-16 16:52:00,
2013-02-16 11:57:00,26.8,18.0,30.09,West,259,6.0,11.0,69,0.00,,---,0.00,VWS V14.01,2013-02-16 16:57:00,
2013-02-16 12:00:00,27.9,17.3,30.08,NW,324,4.0,12.0,64,0.00,,---,0.00,VWS V15.00,2013-02-16 17:00:00,
2013-02-16 12:02:00,26.7,17.6,30.09,West,264,4.0,6.0,68,0.00,,---,0.00,VWS V14.01,2013-02-16 17:02:00,
2013-02-16 12:07:00,27.0,18.5,30.09,West,281,9.0,11.0,70,0.00,,---,0.00,VWS V14.01,2013-02-16 17:07:00,
2013-02-16 12:12:00,27.0,18.2,30.09,NW,323,6.0,11.0,69,0.00,,---,0.00,VWS V14.01,2013-02-16 17:12:00,
2013-02-16 12:17:00,26.6,17.8,30.09,WNW,296,4.0,11.0,69,0.00,,---,0.00,VWS V14.01,2013-02-16 17:17:00,
2013-02-16 12:22:00,26.9,17.8,30.09,WNW,297,6.0,11.0,68,0.00,,---,0.00,VWS V14.01,2013-02-16 17:22:00,
2013-02-16 12:27:00,26.9,16.7,30.09,WSW,253,8.0,11.0,65,0.00,,---,0.00,VWS V14.01,2013-02-16 17:27:00,
2013-02-16 12:30:00,27.9,17.3,30.07,West,281,5.0,10.0,64,0.00,,---,0.00,VWS V15.00,2013-02-16 17:30:00,
2013-02-16 12:32:00,26.6,16.8,30.09,WNW,297,8.0,8.0,66,0.00,,---,0.00,VWS V14.01,2013-02-16 17:32:00,
2013-02-16 12:37:00,26.7,16.5,30.08,WNW,292,6.0,12.0,65,0.00,,---,0.00,VWS V14.01,2013-02-16 17:37:00,
2013-02-16 12:42:00,26.9,17.1,30.08,West,264,6.0,12.0,66,0.00,,---,0.00,VWS V14.01,2013-02-16 17:42:00,
2013-02-16 12:47:00,27.1,17.6,30.08,West,267,3.0,12.0,67,0.00,,---,0.00,VWS V14.01,2013-02-16 17:47:00,
2013-02-16 12:52:00,27.5,16.9,30.08,West,281,5.0,12.0,64,0.00,,---,0.00,VWS V14.01,2013-02-16 17:52:00,
2013-02-16 12:57:00,28.2,18.3,30.08,NW,304,3.0,12.0,66,0.00,,---,0.00,VWS V14.01,2013-02-16 17:57:00,
2013-02-16 13:00:00,26.9,15.6,30.07,West,278,5.0,12.0,62,0.00,,---,0.00,VWS V15.00,2013-02-16 18:00:00,
2013-02-16 13:02:00,27.8,17.2,30.08,NW,323,3.0,7.0,64,0.00,,---,0.00,VWS V14.01,2013-02-16 18:02:00,
2013-02-16 13:07:00,27.6,17.4,30.08,West,262,8.0,8.0,65,0.00,,---,0.00,VWS V14.01,2013-02-16 18:07:00,
2013-02-16 13:12:00,27.6,16.3,30.08,WNW,287,4.0,10.0,62,0.00,,---,0.00,VWS V14.01,2013-02-16 18:12:00,
2013-02-16 13:17:00,27.8,16.1,30.07,West,280,7.0,10.0,61,0.00,,---,0.00,VWS V14.01,2013-02-16 18:17:00,
2013-02-16 13:22:00,27.8,16.9,30.07,WNW,283,4.0,10.0,63,0.00,,---,0.00,VWS V14.01,2013-02-16 18:22:00,
2013-02-16 13:27:00,27.9,17.7,30.07,NW,305,4.0,10.0,65,0.00,,---,0.00,VWS V14.01,2013-02-16 18:27:00,
2013-02-16 13:30:00,27.1,15.4,30.07,WNW,292,4.0,10.0,61,0.00,,---,0.00,VWS V15.00,2013-02-16 18:30:00,
2013-02-16 13:32:00,27.8,17.2,30.07,WNW,287,4.0,7.0,64,0.00,,---,0.00,VWS V14.01,2013-02-16 18:32:00,
2013-02-16 13:37:00,27.6,17.4,30.07,West,264,4.0,9.0,65,0.00,,---,0.00,VWS V14.01,2013-02-16 18:37:00,
2013-02-16 13:42:00,27.5,17.3,30.07,WNW,285,4.0,9.0,65,0.00,,---,0.00,VWS V14.01,2013-02-16 18:42:00,
2013-02-16 13:47:00,27.7,17.1,30.07,WNW,284,3.0,12.0,64,0.00,,---,0.00,VWS V14.01,2013-02-16 18:47:00,
2013-02-16 13:52:00,27.6,16.7,30.07,WNW,283,8.0,12.0,63,0.00,,---,0.00,VWS V14.01,2013-02-16 18:52:00,
2013-02-16 13:57:00,27.2,15.6,30.07,WNW,283,5.0,12.0,61,0.00,,---,0.00,VWS V14.01,2013-02-16 18:57:00,
2013-02-16 14:00:00,27.3,14.1,30.07,West,280,9.0,13.0,57,0.00,,---,0.00,VWS V15.00,2013-02-16 19:00:00,
2013-02-16 14:02:00,26.8,15.5,30.07,WNW,301,5.0,9.0,62,0.00,,---,0.00,VWS V14.01,2013-02-16 19:02:00,
2013-02-16 14:07:00,26.7,15.8,30.06,West,259,1.0,9.0,63,0.00,,---,0.00,VWS V14.01,2013-02-16 19:07:00,
2013-02-16 14:12:00,26.7,16.5,30.06,West,281,3.0,9.0,65,0.00,,---,0.00,VWS V14.01,2013-02-16 19:12:00,
2013-02-16 14:17:00,26.8,16.6,30.07,WNW,283,7.0,9.0,65,0.00,,---,0.00,VWS V14.01,2013-02-16 19:17:00,
2013-02-16 14:22:00,27.0,16.5,30.07,WSW,245,6.0,9.0,64,0.00,,---,0.00,VWS V14.01,2013-02-16 19:22:00,
2013-02-16 14:27:00,26.7,15.4,30.07,West,263,5.0,10.0,62,0.00,,---,0.00,VWS V14.01,2013-02-16 19:27:00,
2013-02-16 14:30:00,26.8,14.0,30.07,NNW,342,6.0,11.0,58,0.00,,---,0.00,VWS V15.00,2013-02-16 19:30:00,
2013-02-16 14:32:00,27.2,15.6,30.07,West,278,3.0,5.0,61,0.00,,---,0.00,VWS V14.01,2013-02-16 19:32:00,
2013-02-16 14:37:00,28.0,16.3,30.07,West,281,8.0,10.0,61,0.00,,---,0.00,VWS V14.01,2013-02-16 19:37:00,
2013-02-16 14:42:00,28.5,16.0,30.07,WNW,283,6.0,13.0,59,0.00,,---,0.00,VWS V14.01,2013-02-16 19:42:00,
2013-02-16 14:47:00,28.6,15.7,30.07,WNW,291,5.0,13.0,58,0.00,,---,0.00,VWS V14.01,2013-02-16 19:47:00,
2013-02-16 14:52:00,28.4,15.5,30.07,WNW,293,3.0,13.0,58,0.00,,---,0.00,VWS V14.01,2013-02-16 19:52:00,
2013-02-16 14:57:00,28.2,14.9,30.07,WNW,283,8.0,13.0,57,0.00,,---,0.00,VWS V14.01,2013-02-16 19:57:00,
2013-02-16 15:00:00,27.2,14.8,30.07,WNW,295,5.0,12.0,59,0.00,,---,0.00,VWS V15.00,2013-02-16 20:00:00,
2013-02-16 15:02:00,27.2,14.0,30.07,WSW,250,7.0,9.0,57,0.00,,---,0.00,VWS V14.01,2013-02-16 20:02:00,
2013-02-16 15:07:00,26.9,14.1,30.07,West,274,5.0,9.0,58,0.00,,---,0.00,VWS V14.01,2013-02-16 20:07:00,
2013-02-16 15:12:00,27.0,15.0,30.07,WNW,293,2.0,9.0,60,0.00,,---,0.00,VWS V14.01,2013-02-16 20:12:00,
2013-02-16 15:17:00,26.9,14.1,30.07,NNW,333,2.0,11.0,58,0.00,,---,0.00,VWS V14.01,2013-02-16 20:17:00,
2013-02-16 15:22:00,26.8,14.4,30.07,WNW,287,7.0,11.0,59,0.00,,---,0.00,VWS V14.01,2013-02-16 20:22:00,
2013-02-16 15:27:00,26.7,13.9,30.07,WNW,288,9.0,11.0,58,0.00,,---,0.00,VWS V14.01,2013-02-16 20:27:00,
2013-02-16 15:30:00,27.8,13.3,30.08,West,266,11.0,12.0,54,0.00,,---,0.00,VWS V15.00,2013-02-16 20:30:00,
2013-02-16 15:32:00,26.9,14.1,30.07,NNW,332,5.0,6.0,58,0.00,,---,0.00,VWS V14.01,2013-02-16 20:32:00,
2013-02-16 15:37:00,27.0,14.2,30.07,West,262,6.0,12.0,58,0.00,,---,0.00,VWS V14.01,2013-02-16 20:37:00,
2013-02-16 15:42:00,27.1,14.3,30.07,NW,308,5.0,12.0,58,0.00,,---,0.00,VWS V14.01,2013-02-16 20:42:00,
2013-02-16 15:47:00,27.0,14.2,30.07,WNW,302,2.0,12.0,58,0.00,,---,0.00,VWS V14.01,2013-02-16 20:47:00,
2013-02-16 15:52:00,26.8,13.6,30.07,WNW,287,4.0,12.0,57,0.00,,---,0.00,VWS V14.01,2013-02-16 20:52:00,
2013-02-16 15:57:00,26.9,13.7,30.07,NW,323,6.0,12.0,57,0.00,,---,0.00,VWS V14.01,2013-02-16 20:57:00,
2013-02-16 16:00:00,26.1,12.6,30.09,WNW,295,4.0,16.0,56,0.00,,---,0.00,VWS V15.00,2013-02-16 21:00:00,
2013-02-16 16:02:00,27.3,14.9,30.07,WNW,296,1.0,4.0,59,0.00,,---,0.00,VWS V14.01,2013-02-16 21:02:00,
2013-02-16 16:07:00,27.4,13.4,30.08,West,275,6.0,11.0,55,0.00,,---,0.00,VWS V14.01,2013-02-16 21:07:00,
2013-02-16 16:12:00,27.2,13.2,30.08,WSW,255,4.0,11.0,55,0.00,,---,0.00,VWS V14.01,2013-02-16 21:12:00,
2013-02-16 16:17:00,27.5,13.5,30.08,NW,313,7.0,12.0,55,0.00,,---,0.00,VWS V14.01,2013-02-16 21:17:00,
2013-02-16 16:22:00,27.5,12.6,30.08,WNW,290,9.0,12.0,53,0.00,,---,0.00,VWS V14.01,2013-02-16 21:22:00,
2013-02-16 16:27:00,27.7,13.2,30.08,WNW,287,8.0,12.0,54,0.00,,---,0.00,VWS V14.01,2013-02-16 21:27:00,
2013-02-16 16:30:00,25.3,13.0,30.09,NW,314,3.0,14.0,59,0.00,,---,0.00,VWS V15.00,2013-02-16 21:30:00,
2013-02-16 16:32:00,27.8,12.9,30.08,WNW,285,13.0,13.0,53,0.00,,---,0.00,VWS V14.01,2013-02-16 21:32:00,
2013-02-16 16:37:00,27.5,12.6,30.08,West,281,7.0,16.0,53,0.00,,---,0.00,VWS V14.01,2013-02-16 21:37:00,
2013-02-16 16:42:00,27.5,13.1,30.09,WSW,255,3.0,16.0,54,0.00,,---,0.00,VWS V14.01,2013-02-16 21:42:00,
2013-02-16 16:47:00,27.1,13.1,30.09,NW,307,8.0,16.0,55,0.00,,---,0.00,VWS V14.01,2013-02-16 21:47:00,
2013-02-16 16:52:00,26.5,12.9,30.09,NW,318,4.0,16.0,56,0.00,,---,0.00,VWS V14.01,2013-02-16 21:52:00,
2013-02-16 16:57:00,26.3,12.3,30.09,West,271,3.0,16.0,55,0.00,,---,0.00,VWS V14.01,2013-02-16 21:57:00,
2013-02-16 17:00:00,24.3,13.9,30.10,NNW,332,5.0,12.0,64,0.00,,---,0.00,VWS V15.00,2013-02-16 22:00:00,
2013-02-16 17:02:00,26.1,13.0,30.09,WNW,302,4.0,5.0,57,0.00,,---,0.00,VWS V14.01,2013-02-16 22:02:00,
2013-02-16 17:07:00,26.1,13.0,30.09,NNW,332,6.0,13.0,57,0.00,,---,0.00,VWS V14.01,2013-02-16 22:07:00,
2013-02-16 17:12:00,25.8,13.1,30.09,West,277,4.0,14.0,58,0.00,,---,0.00,VWS V14.01,2013-02-16 22:12:00,
2013-02-16 17:17:00,25.8,13.1,30.09,West,275,10.0,14.0,58,0.00,,---,0.00,VWS V14.01,2013-02-16 22:17:00,
2013-02-16 17:22:00,25.6,12.5,30.09,WSW,255,8.0,14.0,57,0.00,,---,0.00,VWS V14.01,2013-02-16 22:22:00,
2013-02-16 17:27:00,25.5,13.2,30.09,West,266,6.0,14.0,59,0.00,,---,0.00,VWS V14.01,2013-02-16 22:27:00,
2013-02-16 17:30:00,23.5,14.2,30.11,WNW,287,5.0,8.0,67,0.00,,---,0.00,VWS V15.00,2013-02-16 22:30:00,
2013-02-16 17:32:00,25.3,13.4,30.09,NNW,332,6.0,7.0,60,0.00,,---,0.00,VWS V14.01,2013-02-16 22:32:00,
2013-02-16 17:37:00,25.0,13.1,30.09,NNW,334,5.0,10.0,60,0.00,,---,0.00,VWS V14.01,2013-02-16 22:37:00,
2013-02-16 17:42:00,24.8,12.9,30.10,WNW,297,6.0,12.0,60,0.00,,---,0.00,VWS V14.01,2013-02-16 22:42:00,
2013-02-16 17:47:00,24.7,12.8,30.10,West,259,6.0,12.0,60,0.00,,---,0.00,VWS V14.01,2013-02-16 22:47:00,
2013-02-16 17:52:00,24.6,12.7,30.10,WNW,287,5.0,12.0,60,0.00,,---,0.00,VWS V14.01,2013-02-16 22:52:00,
2013-02-16 17:57:00,24.5,13.7,30.10,WSW,249,4.0,12.0,63,0.00,,---,0.00,VWS V14.01,2013-02-16 22:57:00,
2013-02-16 18:00:00,22.5,14.2,30.11,NW,305,2.0,11.0,70,0.00,,---,0.00,VWS V15.00,2013-02-16 23:00:00,
2013-02-16 18:02:00,24.3,14.2,30.10,WNW,295,5.0,5.0,65,0.00,,---,0.00,VWS V14.01,2013-02-16 23:02:00,
2013-02-16 18:07:00,24.3,14.6,30.10,SSW,200,3.0,7.0,66,0.00,,---,0.00,VWS V14.01,2013-02-16 23:07:00,
2013-02-16 18:12:00,24.2,14.1,30.11,West,280,4.0,8.0,65,0.00,,---,0.00,VWS V14.01,2013-02-16 23:12:00,
2013-02-16 18:17:00,24.2,14.1,30.10,NW,321,4.0,8.0,65,0.00,,---,0.00,VWS V14.01,2013-02-16 23:17:00,
2013-02-16 18:22:00,23.9,14.2,30.11,NW,305,3.0,8.0,66,0.00,,---,0.00,VWS V14.01,2013-02-16 23:22:00,
2013-02-16 18:27:00,23.7,14.4,30.11,WNW,303,3.0,8.0,67,0.00,,---,0.00,VWS V14.01,2013-02-16 23:27:00,
2013-02-16 18:30:00,22.1,13.5,30.12,NW,315,2.0,8.0,69,0.00,,---,0.00,VWS V15.00,2013-02-16 23:30:00,
2013-02-16 18:32:00,23.5,14.2,30.11,WNW,291,3.0,7.0,67,0.00,,---,0.00,VWS V14.01,2013-02-16 23:32:00,
2013-02-16 18:37:00,23.4,14.1,30.11,WNW,287,3.0,9.0,67,0.00,,---,0.00,VWS V14.01,2013-02-16 23:37:00,
2013-02-16 18:42:00,23.2,14.2,30.11,West,278,2.0,9.0,68,0.00,,---,0.00,VWS V14.01,2013-02-16 23:42:00,
2013-02-16 18:47:00,23.0,15.0,30.11,WNW,294,4.0,11.0,71,0.00,,---,0.00,VWS V14.01,2013-02-16 23:47:00,
2013-02-16 18:52:00,22.6,15.6,30.11,WNW,293,2.0,11.0,74,0.00,,---,0.00,VWS V14.01,2013-02-16 23:52:00,
2013-02-16 18:57:00,22.5,15.2,30.11,WNW,295,7.0,11.0,73,0.00,,---,0.00,VWS V14.01,2013-02-16 23:57:00,
2013-02-16 19:00:00,22.2,12.2,30.13,NW,304,6.0,8.0,65,0.00,,---,0.00,VWS V15.00,2013-02-17 00:00:00,
2013-02-16 19:02:00,22.5,14.2,30.11,WSW,246,4.0,4.0,70,0.00,,---,0.00,VWS V14.01,2013-02-17 00:02:00,
2013-02-16 19:07:00,22.5,14.2,30.12,NW,308,5.0,8.0,70,0.00,,---,0.00,VWS V14.01,2013-02-17 00:07:00,
2013-02-16 19:12:00,22.4,13.8,30.12,West,266,7.0,8.0,69,0.00,,---,0.00,VWS V14.01,2013-02-17 00:12:00,
2013-02-16 19:17:00,22.4,13.8,30.12,NW,318,3.0,8.0,69,0.00,,---,0.00,VWS V14.01,2013-02-17 00:17:00,
2013-02-16 19:22:00,22.3,14.0,30.12,NW,323,5.0,8.0,70,0.00,,---,0.00,VWS V14.01,2013-02-17 00:22:00,
2013-02-16 19:27:00,22.1,13.5,30.12,WNW,294,4.0,8.0,69,0.00,,---,0.00,VWS V14.01,2013-02-17 00:27:00,
2013-02-16 19:30:00,22.2,11.9,30.13,NW,311,2.0,8.0,64,0.00,,---,0.00,VWS V15.00,2013-02-17 00:30:00,
2013-02-16 19:32:00,22.1,13.8,30.12,NW,317,2.0,3.0,70,0.00,,---,0.00,VWS V14.01,2013-02-17 00:32:00,
2013-02-16 19:37:00,22.0,13.7,30.12,West,271,1.0,4.0,70,0.00,,---,0.00,VWS V14.01,2013-02-17 00:37:00,
2013-02-16 19:42:00,21.9,13.3,30.12,NW,312,2.0,4.0,69,0.00,,---,0.00,VWS V14.01,2013-02-17 00:42:00,
2013-02-16 19:47:00,22.0,13.1,30.13,WNW,295,2.0,6.0,68,0.00,,---,0.00,VWS V14.01,2013-02-17 00:47:00,
2013-02-16 19:52:00,22.1,12.8,30.13,WNW,293,6.0,8.0,67,0.00,,---,0.00,VWS V14.01,2013-02-17 00:52:00,
2013-02-16 19:57:00,22.1,12.5,30.13,NW,316,3.0,8.0,66,0.00,,---,0.00,VWS V14.01,2013-02-17 00:57:00,
2013-02-16 20:00:00,21.9,12.6,30.14,WNW,301,5.0,11.0,67,0.00,,---,0.00,VWS V15.00,2013-02-17 01:00:00,
2013-02-16 20:02:00,22.3,12.3,30.13,West,274,2.0,6.0,65,0.00,,---,0.00,VWS V14.01,2013-02-17 01:02:00,
2013-02-16 20:07:00,22.3,12.0,30.13,WNW,302,3.0,7.0,64,0.00,,---,0.00,VWS V14.01,2013-02-17 01:07:00,
2013-02-16 20:12:00,22.4,12.1,30.13,NW,305,2.0,7.0,64,0.00,,---,0.00,VWS V14.01,2013-02-17 01:12:00,
2013-02-16 20:17:00,22.3,11.6,30.13,NW,323,5.0,8.0,63,0.00,,---,0.00,VWS V14.01,2013-02-17 01:17:00,
2013-02-16 20:22:00,22.3,11.6,30.13,West,276,3.0,8.0,63,0.00,,---,0.00,VWS V14.01,2013-02-17 01:22:00,
2013-02-16 20:27:00,22.2,11.5,30.13,NW,307,4.0,8.0,63,0.00,,---,0.00,VWS V14.01,2013-02-17 01:27:00,
2013-02-16 20:30:00,21.5,12.3,30.14,WNW,288,3.0,9.0,67,0.00,,---,0.00,VWS V15.00,2013-02-17 01:30:00,
2013-02-16 20:32:00,22.2,11.9,30.13,NNW,343,1.0,2.0,64,0.00,,---,0.00,VWS V14.01,2013-02-17 01:32:00,
2013-02-16 20:37:00,22.2,12.2,30.13,NNW,343,4.0,8.0,65,0.00,,---,0.00,VWS V14.01,2013-02-17 01:37:00,
2013-02-16 20:42:00,22.2,12.6,30.13,West,263,2.0,8.0,66,0.00,,---,0.00,VWS V14.01,2013-02-17 01:42:00,
2013-02-16 20:47:00,22.0,12.4,30.14,WNW,290,4.0,11.0,66,0.00,,---,0.00,VWS V14.01,2013-02-17 01:47:00,
2013-02-16 20:52:00,22.0,12.7,30.14,West,264,6.0,11.0,67,0.00,,---,0.00,VWS V14.01,2013-02-17 01:52:00,
2013-02-16 20:57:00,21.9,12.3,30.14,WNW,292,1.0,11.0,66,0.00,,---,0.00,VWS V14.01,2013-02-17 01:57:00,
2013-02-16 21:00:00,20.6,11.7,30.15,WSW,252,2.0,7.0,68,0.00,,---,0.00,VWS V15.00,2013-02-17 02:00:00,
2013-02-16 21:02:00,21.9,12.3,30.14,WNW,294,4.0,8.0,66,0.00,,---,0.00,VWS V14.01,2013-02-17 02:02:00,
2013-02-16 21:07:00,21.9,12.3,30.14,West,267,2.0,8.0,66,0.00,,---,0.00,VWS V14.01,2013-02-17 02:07:00,
2013-02-16 21:12:00,21.8,12.2,30.14,WNW,297,4.0,8.0,66,0.00,,---,0.00,VWS V14.01,2013-02-17 02:12:00,
2013-02-16 21:17:00,21.8,12.5,30.14,WNW,294,3.0,8.0,67,0.00,,---,0.00,VWS V14.01,2013-02-17 02:17:00,
2013-02-16 21:22:00,21.7,12.4,30.14,WNW,294,3.0,8.0,67,0.00,,---,0.00,VWS V14.01,2013-02-17 02:22:00,
2013-02-16 21:27:00,21.7,12.4,30.15,WNW,301,4.0,8.0,67,0.00,,---,0.00,VWS V14.01,2013-02-17 02:27:00,
2013-02-16 21:30:00,20.0,11.5,30.15,WNW,295,2.0,5.0,69,0.00,,---,0.00,VWS V15.00,2013-02-17 02:30:00,
2013-02-16 21:32:00,21.5,12.3,30.14,WNW,299,3.0,5.0,67,0.00,,---,0.00,VWS V14.01,2013-02-17 02:32:00,
2013-02-16 21:37:00,21.3,12.1,30.15,NW,311,2.0,6.0,67,0.00,,---,0.00,VWS V14.01,2013-02-17 02:37:00,
2013-02-16 21:42:00,21.1,12.2,30.15,NW,314,2.0,6.0,68,0.00,,---,0.00,VWS V14.01,2013-02-17 02:42:00,
2013-02-16 21:47:00,20.9,12.0,30.15,WSW,257,3.0,6.0,68,0.00,,---,0.00,VWS V14.01,2013-02-17 02:47:00,
2013-02-16 21:52:00,20.9,12.0,30.15,NW,320,3.0,7.0,68,0.00,,---,0.00,VWS V14.01,2013-02-17 02:52:00,
2013-02-16 21:57:00,20.8,12.2,30.15,WNW,297,1.0,7.0,69,0.00,,---,0.00,VWS V14.01,2013-02-17 02:57:00,
2013-02-16 22:00:00,19.4,11.6,30.15,West,278,0.0,3.0,71,0.00,,---,0.00,VWS V15.00,2013-02-17 03:00:00,
2013-02-16 22:02:00,20.6,11.7,30.15,NW,314,1.0,3.0,68,0.00,,---,0.00,VWS V14.01,2013-02-17 03:02:00,
2013-02-16 22:06:00,20.5,11.6,30.15,WNW,301,2.0,5.0,68,0.00,,---,0.00,VWS V14.01,2013-02-17 03:06:00,
2013-02-16 22:11:00,20.4,11.5,30.15,West,276,1.0,5.0,68,0.00,,---,0.00,VWS V14.01,2013-02-17 03:11:00,
2013-02-16 22:16:00,20.3,11.8,30.15,WNW,293,2.0,5.0,69,0.00,,---,0.00,VWS V14.01,2013-02-17 03:16:00,
2013-02-16 22:21:00,20.2,11.7,30.15,WNW,293,1.0,5.0,69,0.00,,---,0.00,VWS V14.01,2013-02-17 03:21:00,
2013-02-16 22:26:00,20.1,11.6,30.15,WNW,297,1.0,5.0,69,0.00,,---,0.00,VWS V14.01,2013-02-17 03:26:00,
2013-02-16 22:30:00,19.6,11.7,30.14,WNW,283,0.0,4.0,71,0.00,,---,0.00,VWS V15.00,2013-02-17 03:30:00,
2013-02-16 22:32:00,20.0,11.5,30.15,NW,309,1.0,2.0,69,0.00,,---,0.00,VWS V14.01,2013-02-17 03:32:00,
2013-02-16 22:37:00,19.9,11.4,30.15,WNW,298,1.0,2.0,69,0.00,,---,0.00,VWS V14.01,2013-02-17 03:37:00,
2013-02-16 22:42:00,19.8,11.3,30.15,West,280,1.0,3.0,69,0.00,,---,0.00,VWS V14.01,2013-02-17 03:42:00,
2013-02-16 22:47:00,19.6,11.4,30.15,NW,304,1.0,3.0,70,0.00,,---,0.00,VWS V14.01,2013-02-17 03:47:00,
2013-02-16 22:52:00,19.5,11.3,30.15,West,269,1.0,3.0,70,0.00,,---,0.00,VWS V14.01,2013-02-17 03:52:00,
2013-02-16 22:57:00,19.4,11.2,30.15,WNW,285,0.0,3.0,70,0.00,,---,0.00,VWS V14.01,2013-02-17 03:57:00,
2013-02-16 23:00:00,19.5,12.0,30.14,WNW,285,0.0,3.0,72,0.00,,---,0.00,VWS V15.00,2013-02-17 04:00:00,
2013-02-16 23:02:00,19.3,11.4,30.15,West,276,0.0,1.0,71,0.00,,---,0.00,VWS V14.01,2013-02-17 04:02:00,
2013-02-16 23:07:00,19.3,11.4,30.15,West,267,1.0,1.0,71,0.00,,---,0.00,VWS V14.01,2013-02-17 04:07:00,
2013-02-16 23:11:00,19.3,11.4,30.15,West,269,0.0,1.0,71,0.00,,---,0.00,VWS V14.01,2013-02-17 04:11:00,
2013-02-16 23:16:00,19.3,11.4,30.15,WNW,284,0.0,1.0,71,0.00,,---,0.00,VWS V14.01,2013-02-17 04:16:00,
2013-02-16 23:21:00,19.4,11.9,30.15,WNW,285,1.0,4.0,72,0.00,,---,0.00,VWS V14.01,2013-02-17 04:21:00,
2013-02-16 23:26:00,19.5,11.6,30.15,WNW,294,0.0,4.0,71,0.00,,---,0.00,VWS V14.01,2013-02-17 04:26:00,
2013-02-16 23:30:00,19.7,11.5,30.14,NW,306,0.0,0.0,70,0.00,,---,0.00,VWS V15.00,2013-02-17 04:30:00,
2013-02-16 23:31:00,19.6,11.7,30.14,WNW,283,0.0,1.0,71,0.00,,---,0.00,VWS V14.01,2013-02-17 04:31:00,
2013-02-16 23:36:00,19.5,11.6,30.14,WNW,283,0.0,1.0,71,0.00,,---,0.00,VWS V14.01,2013-02-17 04:36:00,
2013-02-16 23:41:00,19.5,11.6,30.14,WNW,286,1.0,3.0,71,0.00,,---,0.00,VWS V14.01,2013-02-17 04:41:00,
2013-02-16 23:46:00,19.5,12.0,30.14,WNW,300,1.0,3.0,72,0.00,,---,0.00,VWS V14.01,2013-02-17 04:46:00,
2013-02-16 23:51:00,19.4,11.6,30.15,WNW,289,0.0,3.0,71,0.00,,---,0.00,VWS V14.01,2013-02-17 04:51:00,
2013-02-16 23:56:00,19.5,12.0,30.14,West,280,0.0,3.0,72,0.00,,---,0.00,VWS V14.01,2013-02-17 04:56:00,